INTERCOSMOS 25

Last updated on Wed Jul 02 2025 00:02:14 GMT+0000 (Coordinated Universal Time)

1 21819U 91086A 25182.52490294 .00000422 00000+0 84338-4 0 9995 2 21819 82.6056 101.7833 1489148 298.0738 47.7625 12.11094598466271
UTC large
Height (km)
Speed (km/s)
/
Latitude / Longitude
Inclination (degrees)
Orbital Period (minutes)
Azimuth
Elevation
Range (km)
Doppler Factor

Next 0 passes for location: London (51.5072 / 0.1276)

Sorry there are no passes over London.